Temp
76 80 79 80 80 80 80 80 80 79 80 80 80 80 79 79 79 79 79 79 79 80 81 81 81 80 80 80 79 78 77 77 77 77 76 77 78 78 78 77 77 81 78
78 80 79 79 80 80 79 79 79 79 79 79 80 80 79 79 79 79 79 79 80 81 81 80 80 80 80 79 78 77 77 76 75 74 74 74 76 78 78 77 77 80 78
77 80 82 79 79 79 79 79 78 78 79 79 79 79 79 79 79 79 79 79 80 81 81 80 80 78 79 78 77 77 76 75 74 73 73 81 80 78 78 77 76 78 78
77 80 82 78 79 79 79 78 78 78 78 79 79 79 79 79 79 79 79 79 80 80 80 80 79 78 77 76 76 76 75 74 73 72 79 80 81 78 79 78 79 78 78
78 80 80 78 78 78 78 78 78 78 78 78 79 78 79 79 79 79 79 78 78 78 78 77 77 77 76 76 76 76 75 73 72 75 78 78 80 79 78 77 77 77 77
77 79 78 77 78 78 78 78 78 78 78 78 78 78 79 79 80 79 77 77 77 77 77 77 76 76 76 76 76 76 75 73 71 77 77 77 79 77 76 76 76 75 75
73 77 80 78 77 77 77 78 78 78 78 78 78 78 79 79 79 78 76 76 76 76 76 76 76 76 76 76 77 76 74 70 76 76 76 77 78 77 76 76 76 76 75
73 76 79 76 76 77 77 77 77 78 78 78 78 78 78 78 78 77 76 75 76 76 76 76 76 76 75 76 76 74 72 70 73 76 76 77 76 77 76 76 75 75 75
70 73 77 79 77 74 74 75 76 77 77 77 76 77 77 76 77 76 75 75 76 76 76 76 76 75 75 76 75 73 70 68 76 76 76 78 74 77 76 75 75 75 75
71 71 74 77 78 79 79 72 73 74 74 75 75 74 73 72 73 74 73 74 75 75 75 75 75 75 75 74 73 71 69 68 76 75 76 78 74 76 76 75 75 74 74
66 69 72 73 76 77 77 76 72 72 72 72 73 71 71 79 79 77 73 72 73 74 74 74 75 74 72 71 71 70 68 76 76 76 76 70 74 76 76 75 75 74 74
63 65 69 70 72 74 75 76 77 77 77 78 78 78 78 78 79 78 72 70 72 73 72 74 74 72 71 77 76 70 76 75 76 76 76 70 73 76 76 75 74 74 74
63 64 67 69 69 71 73 74 73 75 75 74 76 76 76 77 77 77 77 75 77 70 76 75 75 76 74 74 74 75 74 74 76 76 74 69 73 76 76 75 74 74 74
60 63 65 68 69 67 69 72 73 71 72 72 74 75 75 74 74 76 76 76 76 76 74 73 71 74 73 72 74 74 73 73 74 74 74 67 71 74 77 76 75 74 74
59 61 64 67 68 69 68 69 72 73 72 72 72 74 75 75 74 75 76 76 76 75 75 74 74 73 71 72 72 73 73 74 74 74 75 64 67 71 74 76 76 76 75
60 60 63 66 67 68 68 68 69 72 73 72 71 72 73 74 75 74 75 75 75 75 73 70 74 71 69 70 72 72 73 74 75 74 75 74 66 68 71 74 75 76 76
60 61 61 65 67 67 68 67 68 69 72 72 71 69 71 73 73 73 73 73 74 73 70 72 71 71 71 69 69 72 72 74 74 75 74 74 73 65 68 73 74 75 76
59 59 62 66 67 66 67 68 68 68 69 70 70 69 70 70 71 71 71 70 69 67 69 68 68 65 66 68 68 69 72 73 74 75 75 75 74 74 69 68 71 73 74
59 59 60 63 65 67 67 67 66 67 69 70 70 70 69 70 70 69 70 70 69 67 65 65 68 67 69 69 67 71 72 73 73 74 75 75 74 73 74 69 66 68 70
58 58 59 61 64 66 66 66 64 64 66 69 69 70 70 70 69 69 69 69 70 69 66 63 64 64 64 68 68 70 71 71 72 73 74 75 74 73 73 72 72 73 66
56 57 58 59 63 64 63 61 62 61 64 66 68 69 69 69 69 68 68 68 69 68 67 67 64 62 62 64 66 67 67 70 72 73 73 72 72 72 74 73 72 74 74
55 56 57 59 61 63 64 64 64 64 65 66 66 68 69 69 68 68 68 66 67 68 68 68 67 64 64 61 61 60 59 66 67 71 71 70 72 69 70 69 73 72 73
52 54 57 59 61 62 63 64 63 61 62 63 64 65 67 69 69 69 68 68 67 68 66 67 68 67 64 61 63 64 58 59 61 66 67 67 69 68 68 68 70 69 70
52 53 56 59 60 62 63 62 62 62 61 63 65 66 65 67 68 69 69 67 67 67 67 66 67 67 67 63 60 63 66 65 60 60 63 62 63 64 66 68 68 67 66
55 53 55 57 60 63 63 62 61 62 63 64 64 64 65 66 67 67 68 68 65 66 66 67 66 66 66 65 63 59 63 62 61 58 58 62 63 64 61 62 66 66 66
55 55 55 58 59 62 63 61 62 62 63 63 63 63 63 64 65 66 67 67 66 66 66 66 67 66 65 62 63 63 64 61 60 58 57 57 58 61 61 62 62 64 63
MSLP
1012.33 1012.11 1012.18 1012.42 1012.70 1013.06 1013.46 1013.64 1013.89 1014.13 1014.39 1014.60 1014.90 1015.22 1015.55 1015.85 1016.13 1016.34 1016.51 1016.59 1016.76 1016.85 1016.95 1017.09 1017.27 1017.41 1017.64 1017.84 1017.99 1018.27 1018.31 1018.28 1018.38 1018.46 1018.47 1018.42 1018.41 1018.45 1018.61 1018.70 1018.62 1018.46 1018.61
1012.39 1012.15 1012.30 1012.53 1012.85 1013.14 1013.57 1013.81 1014.03 1014.25 1014.53 1014.79 1015.01 1015.35 1015.68 1015.96 1016.24 1016.45 1016.60 1016.69 1016.78 1016.93 1017.15 1017.32 1017.42 1017.59 1017.71 1018.04 1018.33 1018.48 1018.58 1018.62 1018.71 1018.82 1018.82 1018.73 1018.69 1018.66 1018.76 1018.88 1018.85 1018.84 1018.91
1012.43 1012.24 1012.37 1012.56 1012.98 1013.24 1013.65 1013.96 1014.25 1014.46 1014.66 1014.88 1015.22 1015.50 1015.78 1016.04 1016.29 1016.52 1016.69 1016.80 1016.83 1017.00 1017.24 1017.45 1017.56 1017.99 1018.01 1018.33 1018.54 1018.70 1018.90 1019.00 1019.03 1019.05 1019.03 1018.76 1018.84 1018.88 1018.99 1019.08 1019.04 1019.03 1019.12
1012.48 1012.40 1012.50 1012.71 1013.07 1013.38 1013.68 1014.02 1014.39 1014.65 1014.82 1015.04 1015.37 1015.66 1015.89 1016.13 1016.30 1016.50 1016.65 1016.89 1016.96 1017.17 1017.50 1017.65 1017.95 1018.27 1018.56 1018.69 1018.75 1018.91 1019.10 1019.26 1019.30 1019.30 1019.04 1019.05 1019.06 1019.23 1019.19 1019.24 1019.22 1019.29 1019.37
1012.49 1012.51 1012.75 1012.79 1013.11 1013.36 1013.74 1014.11 1014.35 1014.68 1014.93 1015.12 1015.39 1015.65 1015.89 1016.11 1016.35 1016.47 1016.71 1017.02 1017.18 1017.42 1017.68 1018.02 1018.38 1018.67 1018.83 1018.94 1018.98 1019.11 1019.24 1019.47 1019.59 1019.49 1019.46 1019.46 1019.32 1019.47 1019.51 1019.64 1019.70 1019.79 1019.86
1012.76 1012.70 1012.72 1012.79 1013.08 1013.47 1013.79 1014.13 1014.44 1014.69 1014.95 1015.19 1015.40 1015.61 1015.89 1016.12 1016.37 1016.58 1016.88 1017.14 1017.28 1017.71 1018.01 1018.32 1018.57 1018.79 1019.00 1019.09 1019.19 1019.30 1019.47 1019.61 1019.75 1019.66 1019.68 1019.79 1019.70 1019.82 1019.89 1019.95 1020.02 1020.09 1020.14
1013.05 1012.91 1012.87 1012.87 1013.18 1013.45 1013.80 1014.10 1014.38 1014.66 1014.89 1015.16 1015.41 1015.64 1015.82 1016.11 1016.41 1016.79 1017.09 1017.32 1017.61 1017.91 1018.16 1018.45 1018.70 1018.91 1019.04 1019.13 1019.20 1019.45 1019.72 1019.92 1019.84 1019.93 1019.92 1019.99 1019.92 1020.01 1020.10 1020.17 1020.23 1020.27 1020.33
1013.34 1013.07 1013.02 1013.07 1013.13 1013.58 1013.74 1013.98 1014.23 1014.62 1014.88 1015.11 1015.32 1015.58 1015.82 1016.04 1016.43 1016.95 1017.16 1017.51 1017.86 1018.11 1018.34 1018.53 1018.72 1018.92 1019.10 1019.19 1019.37 1019.61 1019.91 1020.17 1020.17 1020.12 1020.16 1020.11 1020.13 1020.17 1020.28 1020.41 1020.46 1020.51 1020.59
1013.59 1013.43 1013.08 1013.12 1013.20 1013.57 1013.84 1014.01 1014.28 1014.55 1014.74 1015.03 1015.33 1015.55 1015.76 1016.02 1016.34 1016.79 1017.21 1017.52 1017.97 1018.26 1018.43 1018.62 1018.78 1018.95 1019.13 1019.27 1019.46 1019.71 1019.95 1020.16 1020.10 1020.29 1020.39 1020.34 1020.41 1020.36 1020.47 1020.62 1020.71 1020.77 1020.78
1014.09 1013.81 1013.53 1013.17 1013.31 1013.49 1013.75 1014.10 1014.26 1014.48 1014.77 1014.97 1015.28 1015.60 1015.91 1016.13 1016.34 1016.68 1016.96 1017.46 1017.76 1018.21 1018.57 1018.78 1018.91 1019.03 1019.15 1019.27 1019.52 1019.82 1020.05 1020.27 1020.15 1020.32 1020.38 1020.39 1020.53 1020.49 1020.63 1020.75 1020.78 1020.87 1020.93
1014.40 1014.26 1013.87 1013.66 1013.30 1013.47 1013.78 1014.08 1014.35 1014.40 1014.75 1014.96 1015.26 1015.63 1015.95 1016.09 1016.35 1016.65 1016.97 1017.45 1017.76 1018.04 1018.46 1018.90 1019.14 1019.25 1019.35 1019.44 1019.60 1019.85 1020.14 1020.09 1020.22 1020.28 1020.34 1020.56 1020.53 1020.52 1020.66 1020.78 1020.82 1020.86 1020.94
1014.69 1014.41 1014.26 1013.91 1013.72 1013.47 1013.64 1013.94 1014.27 1014.47 1014.73 1014.98 1015.21 1015.51 1015.83 1016.14 1016.34 1016.66 1017.11 1017.50 1017.86 1018.12 1018.40 1018.73 1019.11 1019.45 1019.71 1019.61 1019.70 1020.00 1019.92 1020.05 1020.18 1020.23 1020.31 1020.55 1020.53 1020.45 1020.60 1020.73 1020.83 1020.91 1021.01
1014.81 1014.53 1014.23 1014.03 1013.72 1013.67 1013.53 1013.61 1013.99 1014.36 1014.65 1014.90 1015.04 1015.28 1015.78 1016.07 1016.42 1016.77 1017.14 1017.52 1017.77 1018.18 1018.41 1018.73 1019.03 1019.29 1019.65 1019.92 1019.99 1019.97 1020.05 1020.15 1020.13 1020.17 1020.21 1020.39 1020.37 1020.27 1020.32 1020.58 1020.71 1020.80 1020.82
1014.54 1014.16 1013.89 1013.79 1013.75 1013.80 1013.74 1013.65 1013.57 1013.83 1014.26 1014.59 1014.82 1015.15 1015.51 1015.89 1016.26 1016.50 1016.87 1017.26 1017.57 1017.86 1018.13 1018.53 1019.00 1019.20 1019.65 1019.94 1020.07 1020.13 1020.24 1020.21 1020.20 1020.18 1020.12 1020.31 1020.23 1020.11 1020.04 1020.21 1020.44 1020.58 1020.65
1014.27 1013.73 1013.43 1013.39 1013.33 1013.31 1013.38 1013.23 1013.37 1013.48 1013.79 1014.04 1014.43 1014.79 1015.09 1015.44 1015.86 1016.21 1016.58 1016.98 1017.25 1017.64 1017.96 1018.36 1018.75 1019.18 1019.56 1019.87 1020.04 1020.06 1020.03 1020.04 1020.07 1020.08 1020.00 1020.12 1020.13 1020.10 1020.10 1020.03 1020.12 1020.22 1020.28
1013.73 1013.25 1013.13 1012.95 1012.80 1012.78 1012.87 1012.96 1013.14 1013.31 1013.39 1013.72 1014.19 1014.41 1014.75 1015.01 1015.31 1015.70 1016.13 1016.53 1016.96 1017.35 1017.81 1018.33 1018.60 1019.26 1019.64 1019.97 1019.90 1020.05 1019.96 1019.85 1019.81 1019.84 1019.80 1019.80 1019.98 1020.00 1020.06 1020.08 1019.92 1019.87 1019.89
1012.91 1012.69 1012.51 1012.49 1012.45 1012.52 1012.55 1012.64 1012.66 1012.97 1013.22 1013.37 1013.71 1014.00 1014.44 1014.82 1015.04 1015.32 1015.74 1016.37 1016.65 1017.11 1017.66 1018.10 1018.63 1018.89 1019.26 1019.79 1019.74 1019.80 1019.74 1019.63 1019.62 1019.42 1019.43 1019.49 1019.50 1019.73 1019.75 1019.78 1019.75 1019.65 1019.63
1012.20 1012.11 1011.96 1011.87 1011.82 1012.01 1012.14 1012.27 1012.28 1012.50 1012.78 1013.05 1013.31 1013.64 1013.90 1014.37 1014.79 1015.07 1015.54 1016.12 1016.66 1017.17 1017.42 1018.07 1018.35 1018.77 1018.89 1019.16 1019.48 1019.40 1019.35 1019.23 1019.15 1019.18 1019.08 1018.99 1019.05 1019.12 1019.25 1019.26 1019.21 1019.24 1019.20
1011.55 1011.43 1011.41 1011.47 1011.52 1011.44 1011.68 1011.82 1012.06 1012.30 1012.37 1012.66 1012.92 1013.26 1013.63 1013.96 1014.45 1014.87 1015.15 1015.57 1016.04 1016.67 1017.20 1017.64 1018.15 1018.59 1018.71 1018.72 1019.17 1019.04 1019.13 1018.83 1018.70 1018.64 1018.51 1018.53 1018.56 1018.61 1018.67 1018.68 1018.80 1018.93 1018.83
1010.96 1010.94 1011.02 1010.99 1011.06 1011.22 1011.37 1011.58 1011.91 1012.19 1012.36 1012.43 1012.58 1012.78 1013.31 1013.67 1014.33 1014.68 1015.10 1015.40 1015.74 1016.44 1016.86 1017.51 1017.87 1018.10 1018.55 1018.51 1018.77 1018.58 1018.74 1018.56 1018.36 1018.13 1017.95 1017.86 1017.94 1018.07 1018.10 1018.17 1018.23 1018.29 1018.37
1010.39 1010.34 1010.26 1010.44 1010.40 1010.82 1011.02 1011.19 1011.39 1011.55 1011.91 1012.19 1012.39 1012.46 1012.90 1013.25 1013.67 1014.19 1014.60 1015.12 1015.39 1015.84 1016.14 1016.40 1017.16 1017.44 1018.01 1018.00 1018.86 1018.27 1018.05 1017.95 1017.92 1017.46 1017.39 1017.54 1017.46 1017.55 1017.55 1017.73 1017.94 1018.01 1017.88
1009.55 1009.54 1009.52 1009.59 1009.88 1010.02 1010.26 1010.59 1010.67 1010.88 1011.45 1011.68 1012.13 1012.26 1012.54 1012.65 1013.13 1013.58 1013.98 1014.63 1014.93 1015.42 1015.77 1016.02 1016.16 1016.49 1016.72 1017.18 1017.94 1018.15 1017.87 1017.56 1017.07 1016.66 1016.79 1016.97 1016.96 1017.29 1017.45 1017.43 1017.47 1017.54 1017.59
1009.02 1008.80 1008.66 1008.66 1009.04 1009.34 1009.72 1010.14 1010.43 1010.88 1011.22 1011.60 1011.86 1012.04 1012.13 1012.39 1012.65 1012.99 1013.48 1013.64 1014.37 1014.80 1015.01 1015.22 1015.63 1015.56 1016.24 1016.91 1016.69 1016.70 1017.32 1017.78 1017.00 1016.41 1016.20 1016.21 1016.43 1016.76 1016.93 1017.04 1017.03 1017.20 1017.61
1008.07 1008.14 1008.08 1008.06 1008.42 1008.86 1009.26 1009.68 1009.78 1009.94 1010.21 1010.54 1010.81 1011.29 1011.75 1012.10 1012.31 1012.58 1012.88 1013.14 1013.74 1014.12 1014.34 1014.46 1014.91 1015.16 1015.46 1015.70 1016.41 1016.36 1016.36 1017.20 1017.14 1016.72 1016.35 1016.23 1016.44 1016.46 1016.65 1016.47 1016.59 1016.90 1017.24
1007.36 1007.28 1007.38 1007.69 1007.88 1008.37 1008.74 1009.23 1009.44 1009.69 1009.95 1010.14 1010.51 1010.91 1011.27 1011.63 1011.89 1012.02 1012.23 1012.62 1013.04 1013.25 1013.57 1013.78 1014.23 1014.52 1014.69 1014.99 1014.95 1015.54 1016.10 1016.85 1017.18 1017.16 1016.80 1016.52 1016.45 1016.32 1016.37 1016.42 1016.57 1016.74 1016.69
1006.74 1006.73 1006.87 1007.16 1007.32 1007.60 1008.01 1008.77 1008.99 1009.24 1009.65 1010.06 1010.30 1010.53 1010.74 1011.05 1011.32 1011.48 1011.60 1011.83 1012.10 1012.48 1012.64 1012.96 1013.32 1013.47 1013.72 1014.20 1014.36 1014.70 1015.13 1015.57 1016.16 1016.73 1016.95 1016.50 1016.23 1016.23 1016.10 1016.23 1016.40 1016.36 1016.41
Wind_Speed
5 12 14 17 18 16 15 15 15 16 17 17 17 17 17 16 16 16 15 13 14 13 14 14 14 15 16 15 14 14 14 15 14 13 10 8 12 14 13 11 9 11 13
3 12 13 17 17 18 15 15 14 15 16 16 16 17 16 16 16 15 15 13 16 14 15 13 15 17 15 15 14 14 14 14 13 11 9 11 10 12 13 11 7 12 12
7 12 15 16 16 17 15 13 14 14 14 15 14 15 15 15 16 15 15 14 15 14 15 14 16 16 15 15 15 14 13 12 12 10 7 9 11 14 14 12 12 12 13
6 10 13 14 16 16 16 16 14 13 14 14 13 14 15 15 16 16 15 16 15 14 14 13 13 13 14 14 14 13 12 11 9 7 7 8 9 11 12 12 12 13 12
8 9 9 14 16 16 16 15 16 14 14 14 14 14 13 15 16 14 14 15 14 14 11 15 14 13 13 12 13 13 12 10 9 6 7 7 6 9 10 10 10 10 10
6 7 9 14 15 16 16 16 16 15 15 15 14 15 13 14 14 13 14 14 16 13 14 15 15 13 10 10 11 11 11 10 7 6 6 7 6 9 9 9 9 9 9
3 4 8 10 14 16 16 15 16 15 14 13 15 14 15 14 13 14 14 14 16 14 15 16 14 12 11 9 12 12 10 9 6 6 6 5 6 8 8 8 8 9 9
2 4 7 7 11 14 15 16 16 15 14 12 15 15 15 15 14 14 17 16 16 16 16 16 15 13 11 11 12 11 10 7 5 6 5 5 5 8 8 8 8 8 8
7 6 8 8 8 9 10 13 14 14 13 11 12 14 13 12 13 17 17 17 16 15 14 14 14 13 11 10 12 10 10 8 6 4 4 3 3 7 7 7 6 7 7
10 7 7 8 8 8 9 8 11 11 11 11 11 10 8 8 11 18 17 16 16 14 13 13 13 12 11 10 11 9 9 8 6 5 3 3 3 5 6 5 5 5 5
9 9 7 7 9 8 8 7 8 9 10 9 9 9 8 7 10 13 12 13 14 14 13 11 10 10 9 9 8 9 8 3 5 3 3 4 5 5 5 5 5 4 4
10 10 8 6 8 8 7 9 9 8 7 9 10 10 8 8 9 10 10 12 12 12 12 11 10 7 6 4 4 6 4 5 4 4 3 6 6 6 6 6 5 4 3
9 8 8 8 4 7 8 6 4 5 5 5 10 10 9 8 8 7 7 8 9 10 7 8 8 6 6 4 3 3 4 4 3 3 4 7 8 8 8 8 7 6 5
10 10 9 7 7 5 5 6 7 7 6 6 8 10 8 6 8 8 7 9 9 7 9 7 4 6 5 5 5 5 5 4 3 3 5 8 9 11 10 9 9 8 7
12 11 10 8 7 7 6 6 6 7 7 8 9 10 9 9 9 9 9 9 8 8 8 7 6 5 5 5 5 6 6 6 6 4 4 7 10 10 11 10 9 10 9
12 13 10 10 8 7 7 7 8 7 9 8 8 8 12 9 10 10 10 10 8 9 7 6 7 4 3 3 5 6 7 6 7 6 5 5 9 9 11 11 11 10 10
13 13 11 11 10 9 10 7 6 6 7 8 8 9 11 11 11 11 9 8 9 7 8 6 5 5 4 3 5 6 6 8 8 8 7 6 5 8 11 13 12 12 11
13 14 12 10 11 11 10 8 7 6 6 6 7 7 11 10 11 10 9 7 6 5 6 5 6 4 4 4 5 5 6 7 9 10 7 6 6 6 8 14 14 14 11
13 13 13 12 13 12 11 8 6 8 7 7 6 8 10 10 11 9 8 8 10 7 6 5 5 4 5 5 5 6 7 7 8 8 10 9 9 7 6 9 11 13 12
13 12 12 10 12 12 7 7 4 5 5 6 6 7 10 8 9 8 7 9 9 8 7 4 3 3 2 5 5 6 8 8 7 8 9 8 8 9 9 9 7 9 13
12 12 13 12 13 9 7 7 6 7 7 7 7 7 10 9 13 11 7 9 10 10 11 12 8 8 6 3 4 5 6 9 12 9 8 8 8 9 9 7 5 6 6
13 13 12 14 13 12 9 9 5 7 6 7 7 7 8 12 11 10 11 9 11 9 12 13 12 5 5 8 5 2 3 5 6 9 8 8 10 3 6 6 8 8 7
12 13 14 13 14 13 13 8 5 3 3 5 7 8 10 10 11 12 12 11 11 10 10 13 13 15 10 5 7 4 2 7 2 1 7 6 7 5 5 5 6 6 7
13 11 13 12 12 12 14 12 15 10 8 7 7 7 8 11 13 13 13 12 12 10 12 12 11 12 11 10 2 7 7 3 3 3 1 0 2 3 6 5 6 7 9
10 10 10 11 12 12 12 13 12 11 7 5 6 8 10 10 13 13 14 14 13 11 13 14 14 14 10 9 6 3 9 6 3 2 3 2 2 2 3 3 5 7 10
8 9 10 12 13 14 13 13 15 12 9 7 7 7 7 8 8 13 14 14 14 14 15 13 14 15 12 9 6 7 8 5 8 7 7 5 4 4 2 4 6 7 7
Wind_Direction
238 182 169 154 151 147 152 146 142 142 144 145 148 146 144 143 144 144 145 144 142 135 128 123 129 128 117 118 103 92 94 92 93 90 74 80 100 97 97 94 96 91 83
228 182 173 156 154 150 156 152 144 140 144 147 151 149 148 148 150 152 152 150 148 130 135 132 138 133 124 114 112 107 102 100 95 87 76 78 88 104 104 107 107 97 94
204 182 175 159 155 151 155 148 148 146 147 149 152 155 154 155 157 159 161 151 145 142 132 135 126 120 120 125 122 120 110 101 94 91 87 99 98 97 98 102 111 100 92
184 180 178 164 159 158 154 152 150 151 151 151 154 157 158 160 160 163 168 154 145 142 141 129 124 127 127 130 130 125 120 109 97 86 100 101 101 96 93 83 89 84 80
178 173 181 170 167 161 156 158 156 159 158 157 161 160 164 165 166 167 155 152 143 130 137 128 136 140 140 138 135 134 129 119 106 108 98 97 99 93 90 87 90 86 74
176 180 186 174 168 164 162 163 161 165 167 170 164 163 168 173 173 169 150 144 127 139 135 144 147 147 149 156 155 141 136 131 130 120 116 107 109 113 108 101 92 89 88
153 176 198 171 176 169 169 168 167 171 174 177 167 170 170 177 179 167 152 140 138 146 152 154 154 151 146 145 149 144 138 132 133 127 125 126 126 123 117 112 105 99 96
292 183 201 191 178 183 179 174 175 179 182 179 174 177 180 177 174 160 153 145 149 158 162 162 159 156 154 152 144 142 137 133 142 139 136 136 132 128 120 113 108 101 93
4 307 206 205 205 190 191 182 182 186 186 183 181 183 183 187 186 163 159 152 158 165 167 166 164 162 158 160 151 147 145 143 147 142 146 146 155 133 125 117 109 100 94
10 2 297 204 210 206 210 199 189 190 191 183 181 185 183 187 177 172 163 161 161 165 170 172 170 167 159 156 155 152 145 143 153 158 165 161 218 149 138 129 122 113 105
349 0 344 301 212 205 204 216 207 201 197 186 182 181 180 191 189 179 168 161 163 163 167 175 178 173 159 153 156 161 154 166 169 175 179 201 224 177 163 161 155 146 129
322 328 334 316 282 209 201 206 210 210 211 210 201 195 191 189 182 180 170 161 162 162 165 172 176 166 172 177 164 155 196 182 191 195 203 216 224 206 192 193 188 183 169
291 296 307 310 285 243 233 200 188 201 206 203 207 193 192 186 185 177 177 174 177 171 178 180 177 188 186 198 199 194 190 200 215 218 221 223 225 226 211 213 209 208 207
279 274 284 284 272 235 251 234 191 188 195 200 205 195 189 187 186 183 183 185 186 183 182 183 177 185 188 197 221 228 227 229 233 238 238 238 235 235 231 221 223 227 229
269 269 262 269 256 240 227 218 209 201 188 198 198 195 194 193 189 185 190 190 194 187 186 185 188 188 195 213 224 237 232 237 242 245 250 228 242 244 251 251 237 236 238
251 262 257 255 252 240 222 209 213 211 208 190 200 198 197 191 191 191 192 196 193 191 178 172 188 194 198 240 241 245 256 248 248 248 253 251 241 247 250 258 263 251 241
248 252 243 246 238 226 226 209 202 210 201 197 194 187 193 195 193 186 188 195 192 181 167 176 182 181 202 233 252 256 254 260 258 248 246 245 246 236 240 244 251 259 257
243 245 250 237 223 217 222 215 211 195 197 201 193 189 189 190 190 186 184 187 171 149 181 173 182 189 204 214 256 252 257 255 260 259 254 244 237 243 232 235 233 241 249
238 243 242 235 230 217 222 210 203 216 205 199 185 193 191 186 185 185 190 188 167 167 177 172 197 206 223 226 255 266 269 263 257 255 250 248 243 241 242 238 229 232 235
238 241 241 232 228 225 212 209 179 200 197 197 192 195 184 178 182 180 183 182 178 182 171 169 180 180 220 234 253 267 275 270 261 251 251 245 241 239 237 236 233 233 224
236 237 233 226 220 208 204 207 195 195 197 196 202 174 179 187 184 186 183 186 188 193 195 184 178 187 197 158 260 278 260 261 254 249 239 245 243 240 240 241 239 240 223
234 231 231 222 216 205 201 210 198 184 204 206 194 187 194 189 193 192 189 191 192 198 198 202 198 201 218 171 176 163 301 273 245 234 227 229 242 233 249 237 237 233 220
234 231 228 222 211 207 203 197 178 133 153 188 194 203 207 201 192 195 203 197 200 202 207 206 210 201 207 187 192 174 113 238 314 200 234 216 219 226 227 228 226 218 217
242 236 229 225 221 207 192 200 202 201 196 201 204 208 205 209 214 209 210 206 208 207 209 207 207 212 210 203 180 214 216 233 236 291 229 292 263 216 240 226 211 198 199
245 226 216 218 208 201 194 209 205 199 207 201 196 202 211 213 216 219 220 215 210 209 214 211 209 211 210 217 201 130 211 218 213 220 273 219 242 206 226 217 229 210 199
249 237 204 199 203 195 194 202 208 204 203 211 204 207 209 212 214 220 221 222 220 221 215 212 215 210 206 208 200 201 206 186 212 213 240 253 254 266 260 231 220 215 202